Regional Weather Roundup
Issued by NWS Little Rock, AR

Home | Current Version | Previous Version | Graphics & Text | Print | Product List | Glossary On
Versions: 1 2 3 4 5 6 7 8 9 10 11 12 13 14 15 16 17 18 19 20 21 22 23 24 25 26 27 28 29 30 31 32
000
ASUS44 KLZK 201805
RWRLZK

WEATHER ROUNDUP FOR ARKANSAS
NATIONAL WEATHER SERVICE LITTLE ROCK AR
1200 PM CST MON FEB 20 2017

NOTE: "FAIR" INDICATES FEW OR NO CLOUDS BELOW 12,000 FEET WITH NO
SIGNIFICANT WEATHER AND/OR OBSTRUCTIONS TO VISIBILITY.

ARZ001-003-010-029-201900-
NORTHWEST ARKANSAS

CITY           SKY/WX    TMP DP  RH WIND       PRES   REMARKS
FAYETTEVILLE   CLOUDY    64  58  80 S14G22    29.93S
6HR MIN TEMP:  59; 6HR MAX TEMP:  66; 6HR PCP:  0.08;

FORT SMITH     PTSUNNY   66  58  75 VRB3      29.94F
6HR MIN TEMP:  62; 6HR MAX TEMP:  67; 6HR PCP:  0.22;

HARRISON       CLOUDY    65  59  81 S16       29.97F
6HR MIN TEMP:  60; 6HR MAX TEMP:  66; 6HR PCP: TRACE;

BENTONVILLE    CLOUDY    64  57  77 S12       29.94S
6HR MIN TEMP:  61; 6HR MAX TEMP:  64; 6HR PCP:  0.04;

ROGERS         CLOUDY    65  60  84 S12       29.94R
6HR MIN TEMP:  60; 6HR MAX TEMP:  65; 6HR PCP:  0.06;

SILOAM SPGS    CLOUDY    63  55  77 S18G24    29.92F
6HR MIN TEMP:  61; 6HR MAX TEMP:  66; 6HR PCP:  0.17;

HIGHFILL       CLOUDY    64  59  83 S17       29.92S
6HR MIN TEMP:  60; 6HR MAX TEMP:  67; 6HR PCP:  0.11;

SPRINGDALE     CLOUDY    64  59  82 S12       29.97R
$$

ARZ004-005-016-201900-
NORTH CENTRAL ARKANSAS

CITY           SKY/WX    TMP DP  RH WIND       PRES   REMARKS
BATESVILLE     CLOUDY    75  59  57 S13G18    30.01F
6HR MIN TEMP:  61; 6HR MAX TEMP:  75;

FLIPPIN        CLOUDY    73  57  56 S12G17    29.94F
6HR MIN TEMP:  54; 6HR MAX TEMP:  73;

$$

ARZ040-041-201900-
WEST CENTRAL ARKANSAS

CITY           SKY/WX    TMP DP  RH WIND       PRES   REMARKS
MENA           CLOUDY    64  63  94 SW5       30.00F
MOUNT IDA      CLOUDY    66  59  78 CALM      29.97
6HR MIN TEMP:  64; 6HR MAX TEMP:  69; 6HR PCP: TRACE;

$$

ARZ009-017-025-026-028-201900-
NORTHEAST ARKANSAS

CITY           SKY/WX    TMP DP  RH WIND       PRES   REMARKS
CORNING        FAIR      73  57  56 S18       30.04F
JONESBORO      SUNNY     71  55  56 S12       30.04F
6HR MIN TEMP:  50; 6HR MAX TEMP:  72;

NEWPORT        CLOUDY    73  57  57 S18         N/A
6HR MIN TEMP:  53; 6HR MAX TEMP:  75;

WALNUT RIDGE   MOSUNNY   73  54  49 S20       30.03F
6HR MIN TEMP:  52; 6HR MAX TEMP:  73;

BLYTHEVILLE    PTSUNNY   72  56  57 S13       30.07F
6HR MIN TEMP:  56; 6HR MAX TEMP:  72;

$$

ARZ022-023-033-042-044-201900-
CENTRAL ARKANSAS

CITY           SKY/WX    TMP DP  RH WIND       PRES   REMARKS
LITTLE ROCK    CLOUDY    74  63  68 S17       29.99F
6HR MIN TEMP:  51; 6HR MAX TEMP:  76;

N LITTLE ROCK    N/A     71  63  75 SE9       30.00F
6HR MIN TEMP:  58; 6HR MAX TEMP:  72;

JACKSONVILLE   MOSUNNY   73  64  72 SE7       29.98F
6HR MIN TEMP:  51; 6HR MAX TEMP:  74;

SEARCY         PTSUNNY   75  63  66 S15G21    30.01F
6HR MIN TEMP:  49; 6HR MAX TEMP:  75;

HOT SPRINGS    CLOUDY    72  60  66 SW14G20   29.98F
6HR MIN TEMP:  62; 6HR MAX TEMP:  74;

RUSSELLVILLE   CLOUDY    68  60  75 S6        29.97F
6HR MIN TEMP:  60; 6HR MAX TEMP:  69;

$$

ARZ036-201900-
EAST ARKANSAS

CITY           SKY/WX    TMP DP  RH WIND       PRES   REMARKS
$$

ARZ050-053-066-070-073-201900-
SOUTHWEST ARKANSAS

CITY           SKY/WX    TMP DP  RH WIND       PRES   REMARKS
ARKADELPHIA    MOCLDY    73  61  65 SW10      29.99F
6HR MIN TEMP:  56; 6HR MAX TEMP:  73;

CAMDEN         PTSUNNY   77  61  57 S10       29.99F
TEXARKANA      LGT RAIN  63  59  87 S7        30.02F
6HR MIN TEMP:  59; 6HR MAX TEMP:  63; 6HR PCP:  0.01;

EL DORADO      CLOUDY    73  64  73 S10       30.00F
6HR MIN TEMP:  63; 6HR MAX TEMP:  74;

DE QUEEN       CLOUDY    63  61  93 S6        29.98F
6HR MIN TEMP:  59; 6HR MAX TEMP:  63; 6HR PCP:  0.05;

$$

ARZ056-057-069-201900-
SOUTHEAST ARKANSAS

CITY           SKY/WX    TMP DP  RH WIND       PRES   REMARKS
PINE BLUFF     PTSUNNY   78  63  59 S20G25    30.01F
6HR MIN TEMP:  51; 6HR MAX TEMP:  78;

STUTTGART      MOSUNNY   75  57  53 S17G24    30.02F
6HR MIN TEMP:  55; 6HR MAX TEMP:  75;

MONTICELLO     PTSUNNY   73  62  68 SE12G18   30.03F
6HR MIN TEMP:  54; 6HR MAX TEMP:  74;


$$






USA.gov is the U.S. government's official web portal to all federal, state and local government web resources and services.